EN

Hourly Weather Fandeeva

Today, 19 October, Monday

Time Temperature Precipitation Wind Pressure Humidity
00:00 +3°C° 0 mm 5 mps 738 mmHg 81%
01:00 +3°C° 0 mm 5 mps 738 mmHg 80%
02:00 +3°C° 0 mm 5 mps 738 mmHg 77%
03:00 +3°C° 0 mm 5 mps 738 mmHg 79%
04:00 +3°C° 0 mm 5 mps 738 mmHg 82%
05:00 +3°C° 0 mm 6 mps 738 mmHg 84%
06:00 +3°C° 0.2 mm 6 mps 739 mmHg 85%
07:00 +3°C° 0.2 mm 5 mps 739 mmHg 87%
08:00 +3°C° 0 mm 5 mps 740 mmHg 88%
09:00 +5°C° 0.1 mm 5 mps 740 mmHg 81%
10:00 +6°C° 0.1 mm 5 mps 740 mmHg 74%
11:00 +6°C° 0.1 mm 5 mps 740 mmHg 67%
12:00 +7°C° 0 mm 5 mps 740 mmHg 64%
13:00 +7°C° 0 mm 5 mps 740 mmHg 61%
14:00 +7°C° 0 mm 5 mps 740 mmHg 58%
15:00 +6°C° 0 mm 5 mps 740 mmHg 64%
16:00 +5°C° 0 mm 4 mps 741 mmHg 69%
17:00 +4°C° 0 mm 4 mps 741 mmHg 75%
18:00 +4°C° 0 mm 4 mps 741 mmHg 76%
19:00 +3°C° 0 mm 4 mps 742 mmHg 78%
20:00 +3°C° 0 mm 4 mps 742 mmHg 80%
21:00 +3°C° 0 mm 4 mps 742 mmHg 80%
22:00 +1°C° 0 mm 5 mps 742 mmHg 80%
23:00 +1°C° 0 mm 5 mps 742 mmHg 80%

Tomorrow, 20 October, Tuesday

Time Temperature Precipitation Wind Pressure Humidity
00:00 +1°C° 0 mm 5 mps 742 mmHg 80%
01:00 +1°C° 0 mm 5 mps 743 mmHg 81%
02:00 0°C° 0 mm 5 mps 743 mmHg 81%
03:00 0°C° 0 mm 5 mps 743 mmHg 83%
04:00 0°C° 0 mm 5 mps 743 mmHg 84%
05:00 0°C° 0 mm 5 mps 743 mmHg 85%
06:00 -1°C° 0 mm 6 mps 743 mmHg 84%
07:00 +1°C° 0 mm 6 mps 743 mmHg 82%
08:00 +1°C° 0 mm 6 mps 743 mmHg 81%
09:00 +2°C° 0 mm 7 mps 743 mmHg 75%
10:00 +3°C° 0 mm 7 mps 743 mmHg 69%
11:00 +4°C° 0 mm 7 mps 743 mmHg 63%
12:00 +4°C° 0 mm 7 mps 743 mmHg 64%
13:00 +4°C° 0 mm 7 mps 743 mmHg 64%
14:00 +4°C° 0 mm 7 mps 743 mmHg 64%
15:00 +3°C° 0 mm 7 mps 744 mmHg 66%
16:00 +3°C° 0 mm 6 mps 744 mmHg 68%
17:00 +2°C° 0 mm 6 mps 744 mmHg 70%
18:00 +1°C° 0 mm 5 mps 745 mmHg 73%
19:00 +1°C° 0 mm 5 mps 745 mmHg 75%
20:00 0°C° 0 mm 5 mps 746 mmHg 78%
21:00 -1°C° 0 mm 4 mps 746 mmHg 80%
22:00 -1°C° 0 mm 4 mps 746 mmHg 83%
23:00 -1°C° 0 mm 3 mps 746 mmHg 86%

Day after tomorrow, 21 October, Wednesday

Time Temperature Precipitation Wind Pressure Humidity
00:00 -1°C° 0 mm 3 mps 747 mmHg 86%
01:00 -1°C° 0 mm 3 mps 747 mmHg 86%
02:00 -1°C° 0 mm 3 mps 747 mmHg 86%
03:00 -1°C° 0 mm 3 mps 747 mmHg 86%
04:00 -1°C° 0 mm 3 mps 748 mmHg 86%
05:00 -1°C° 0 mm 2 mps 748 mmHg 86%
06:00 0°C° 0 mm 3 mps 748 mmHg 83%
07:00 0°C° 0 mm 3 mps 747 mmHg 80%
08:00 +1°C° 0 mm 3 mps 747 mmHg 77%
09:00 +2°C° 0 mm 3 mps 747 mmHg 76%
10:00 +3°C° 0 mm 4 mps 747 mmHg 74%
11:00 +4°C° 0 mm 4 mps 747 mmHg 73%
12:00 +3°C° 0.3 mm 4 mps 747 mmHg 77%
13:00 +3°C° 0.3 mm 3 mps 746 mmHg 80%
14:00 +3°C° 0.3 mm 3 mps 746 mmHg 84%
15:00 +3°C° 0.2 mm 3 mps 746 mmHg 86%
16:00 +3°C° 0.2 mm 3 mps 745 mmHg 88%
17:00 +3°C° 0.2 mm 3 mps 745 mmHg 90%
18:00 +3°C° 0.2 mm 3 mps 745 mmHg 91%
19:00 +4°C° 0.2 mm 3 mps 745 mmHg 91%
20:00 +4°C° 0.2 mm 3 mps 744 mmHg 92%
21:00 +4°C° 0.1 mm 3 mps 744 mmHg 92%
22:00 +4°C° 0.1 mm 3 mps 744 mmHg 93%
23:00 +5°C° 0.1 mm 2 mps 744 mmHg 93%

22 October, Thursday

Time Temperature Precipitation Wind Pressure Humidity
00:00 +5°C° 0.1 mm 2 mps 743 mmHg 93%
01:00 +6°C° 0.1 mm 2 mps 743 mmHg 93%
02:00 +6°C° 0.1 mm 2 mps 743 mmHg 93%
03:00 +5°C° 0 mm 2 mps 743 mmHg 93%
04:00 +5°C° 0 mm 2 mps 743 mmHg 93%
05:00 +5°C° 0 mm 2 mps 743 mmHg 94%
06:00 +4°C° 0 mm 3 mps 743 mmHg 92%
07:00 +5°C° 0 mm 3 mps 742 mmHg 90%
08:00 +5°C° 0 mm 3 mps 742 mmHg 88%
09:00 +5°C° 0.2 mm 4 mps 742 mmHg 88%
10:00 +5°C° 0.2 mm 4 mps 742 mmHg 87%
11:00 +6°C° 0.2 mm 4 mps 741 mmHg 87%
12:00 +6°C° 0.4 mm 5 mps 741 mmHg 86%
13:00 +7°C° 0.4 mm 5 mps 740 mmHg 85%
14:00 +7°C° 0.4 mm 5 mps 740 mmHg 85%
15:00 +7°C° 0 mm 5 mps 740 mmHg 83%
16:00 +8°C° 0 mm 5 mps 739 mmHg 81%
17:00 +8°C° 0 mm 4 mps 739 mmHg 79%
18:00 +8°C° 0 mm 4 mps 739 mmHg 81%
19:00 +8°C° 0 mm 5 mps 739 mmHg 84%
20:00 +8°C° 0 mm 5 mps 739 mmHg 86%
21:00 +8°C° 0 mm 5 mps 739 mmHg 88%
22:00 +7°C° 0 mm 5 mps 740 mmHg 90%
23:00 +7°C° 0 mm 5 mps 740 mmHg 92%

23 October, Friday

Time Temperature Precipitation Wind Pressure Humidity
00:00 +7°C° 0 mm 5 mps 740 mmHg 92%
01:00 +7°C° 0 mm 5 mps 740 mmHg 92%
02:00 +7°C° 0 mm 5 mps 740 mmHg 92%
03:00 +7°C° 0 mm 5 mps 740 mmHg 92%
04:00 +7°C° 0 mm 5 mps 740 mmHg 93%
05:00 +7°C° 0 mm 5 mps 740 mmHg 93%
06:00 +8°C° 0 mm 5 mps 740 mmHg 92%
07:00 +8°C° 0 mm 5 mps 740 mmHg 92%
08:00 +8°C° 0 mm 5 mps 740 mmHg 91%
09:00 +9°C° 0 mm 5 mps 740 mmHg 88%
10:00 +10°C° 0 mm 6 mps 739 mmHg 85%
11:00 +11°C° 0 mm 6 mps 739 mmHg 82%
12:00 +13°C° 0 mm 5 mps 739 mmHg 81%
13:00 +13°C° 0 mm 5 mps 739 mmHg 80%
14:00 +13°C° 0 mm 5 mps 738 mmHg 79%
15:00 +13°C° 0 mm 5 mps 738 mmHg 80%
16:00 +13°C° 0 mm 5 mps 737 mmHg 82%
17:00 +12°C° 0 mm 5 mps 737 mmHg 83%
18:00 +11°C° 0.7 mm 6 mps 737 mmHg 85%
19:00 +11°C° 0.7 mm 6 mps 737 mmHg 87%
20:00 +11°C° 0.7 mm 7 mps 737 mmHg 89%
21:00 +11°C° 0.1 mm 7 mps 737 mmHg 89%
22:00 +11°C° 0.1 mm 6 mps 737 mmHg 89%
23:00 +11°C° 0.1 mm 6 mps 736 mmHg 89%

24 October, Saturday

Time Temperature Precipitation Wind Pressure Humidity
00:00 +11°C° 0 mm 6 mps 736 mmHg 89%
01:00 +10°C° 0 mm 5 mps 736 mmHg 89%
02:00 +10°C° 0 mm 5 mps 736 mmHg 89%
03:00 +10°C° 0 mm 5 mps 737 mmHg 90%
04:00 +11°C° 0 mm 4 mps 737 mmHg 91%
05:00 +10°C° 0 mm 4 mps 737 mmHg 92%
06:00 +10°C° 0 mm 4 mps 737 mmHg 91%
07:00 +10°C° 0 mm 4 mps 737 mmHg 89%
08:00 +9°C° 0 mm 5 mps 737 mmHg 87%
09:00 +9°C° 0 mm 5 mps 737 mmHg 81%
10:00 +9°C° 0 mm 5 mps 738 mmHg 74%
11:00 +10°C° 0 mm 5 mps 738 mmHg 67%
12:00 +10°C° 0 mm 5 mps 738 mmHg 66%
13:00 +10°C° 0 mm 5 mps 738 mmHg 65%
14:00 +10°C° 0 mm 5 mps 739 mmHg 64%
15:00 +10°C° 0 mm 4 mps 739 mmHg 69%
16:00 +8°C° 0 mm 3 mps 739 mmHg 75%
17:00 +7°C° 0 mm 3 mps 739 mmHg 80%
18:00 +6°C° 0 mm 2 mps 740 mmHg 82%
19:00 +6°C° 0 mm 2 mps 740 mmHg 85%
20:00 +5°C° 0 mm 2 mps 741 mmHg 88%
21:00 +4°C° 0 mm 2 mps 741 mmHg 88%
22:00 +4°C° 0 mm 2 mps 741 mmHg 89%
23:00 +4°C° 0 mm 1 mps 741 mmHg 90%

25 October, Sunday

Time Temperature Precipitation Wind Pressure Humidity
00:00 +4°C° 0 mm 1 mps 741 mmHg 89%
01:00 +4°C° 0 mm 1 mps 741 mmHg 88%
02:00 +3°C° 0 mm 1 mps 741 mmHg 87%
03:00 +3°C° 0 mm 1 mps 742 mmHg 86%
04:00 +3°C° 0 mm 1 mps 742 mmHg 85%
05:00 +3°C° 0 mm 1 mps 742 mmHg 84%
06:00 +2°C° 0 mm 2 mps 742 mmHg 83%
07:00 +2°C° 0 mm 2 mps 742 mmHg 81%
08:00 +2°C° 0 mm 3 mps 742 mmHg 80%
09:00 +2°C° 0 mm 3 mps 743 mmHg 75%
10:00 +3°C° 0 mm 3 mps 743 mmHg 71%
11:00 +4°C° 0 mm 3 mps 743 mmHg 66%
12:00 +4°C° 0 mm 3 mps 743 mmHg 65%
13:00 +4°C° 0 mm 4 mps 743 mmHg 64%
14:00 +4°C° 0 mm 4 mps 743 mmHg 63%
15:00 +3°C° 0 mm 4 mps 744 mmHg 64%
16:00 +3°C° 0 mm 3 mps 744 mmHg 65%
17:00 +3°C° 0 mm 3 mps 744 mmHg 66%
18:00 +3°C° 0 mm 3 mps 744 mmHg 68%
19:00 +2°C° 0 mm 3 mps 745 mmHg 71%
20:00 +2°C° 0 mm 3 mps 745 mmHg 74%
21:00 +2°C° 0 mm 3 mps 745 mmHg 73%
22:00 +2°C° 0 mm 3 mps 746 mmHg 72%
23:00 +2°C° 0 mm 3 mps 746 mmHg 71%
Show more

We Need Your Consent

Meteoprog and our Service Providers may store and access personal data such as cookies, device identifiers or other similar technologies on your device and process such data to personalise content and ads, as well as provide social media features and to analyse the traffic.

  • Store and/or access information on your device

    Cookies, device identifiers or other information can be stored or accessed on your device for the purposes indicated above.

  • Personalised ads and content, ad and content measurement, audience insights, and products development

    Ads and content can be personalised based on a profile. More data can be added to better personalise ads and content. Ad and content performance can be measured. Insights about the audience who saw the ads and content can be derived. Such data can be used to develop or improve user’s experience, systems and software.

By clicking ‘I Agree’ you will allow the use of indicated cookies, device identifiers, web beacons or other similar technologies. Your settings can be changed in the browser on your device.

For certain purposes, legitimate interests may be relied on, rather than consent. You can read more about this in our Privacy and Cookie Policy.